• In Czech Republic
  • List of Countries
  • For 7 days
  • Water Temperature
  • Satellite Maps
  • Weather Map
  • Weather Widgets
  • user-avatar
    Login

    Hourly Weather Dorchester

    Today, 22 October, Sunday

    Time Temperature Precipitation Wind Pressure Humidity
    00:00 +10°C° 0 mm 7 mps 750 mmHg 84%
    01:00 +9°C° 0 mm 7 mps 750 mmHg 82%
    02:00 +9°C° 0 mm 7 mps 751 mmHg 80%
    03:00 +7°C° 0 mm 8 mps 752 mmHg 78%
    04:00 +7°C° 0 mm 8 mps 752 mmHg 77%
    05:00 +7°C° 0 mm 8 mps 753 mmHg 77%
    06:00 +6°C° 0 mm 7 mps 753 mmHg 76%
    07:00 +7°C° 0 mm 8 mps 754 mmHg 73%
    08:00 +7°C° 0 mm 8 mps 754 mmHg 70%
    09:00 +7°C° 0 mm 9 mps 755 mmHg 68%
    10:00 +8°C° 0 mm 9 mps 755 mmHg 65%
    11:00 +10°C° 0 mm 9 mps 755 mmHg 63%
    12:00 +11°C° 0 mm 9 mps 756 mmHg 60%
    13:00 +11°C° 0 mm 9 mps 756 mmHg 62%
    14:00 +11°C° 0 mm 8 mps 756 mmHg 63%
    15:00 +11°C° 0 mm 8 mps 757 mmHg 64%
    16:00 +10°C° 0 mm 7 mps 757 mmHg 69%
    17:00 +10°C° 0 mm 6 mps 758 mmHg 74%
    18:00 +9°C° 0 mm 5 mps 758 mmHg 78%
    19:00 +9°C° 0 mm 5 mps 759 mmHg 81%
    20:00 +8°C° 0 mm 5 mps 759 mmHg 84%
    21:00 +8°C° 0 mm 5 mps 759 mmHg 87%
    22:00 +8°C° 0 mm 4 mps 759 mmHg 88%
    23:00 +8°C° 0 mm 4 mps 759 mmHg 89%

    Tomorrow, 23 October, Monday

    Time Temperature Precipitation Wind Pressure Humidity
    00:00 +8°C° 0 mm 4 mps 759 mmHg 90%
    01:00 +8°C° 0 mm 4 mps 759 mmHg 90%
    02:00 +10°C° 0 mm 4 mps 759 mmHg 90%
    03:00 +10°C° 0 mm 4 mps 759 mmHg 89%
    04:00 +10°C° 0.3 mm 4 mps 759 mmHg 91%
    05:00 +11°C° 0.3 mm 4 mps 759 mmHg 92%
    06:00 +11°C° 0.3 mm 4 mps 759 mmHg 94%
    07:00 +12°C° 0.3 mm 4 mps 758 mmHg 93%
    08:00 +12°C° 0.3 mm 5 mps 758 mmHg 93%
    09:00 +13°C° 0.3 mm 5 mps 758 mmHg 92%
    10:00 +14°C° 0.1 mm 5 mps 758 mmHg 91%
    11:00 +14°C° 0.1 mm 5 mps 758 mmHg 90%
    12:00 +15°C° 0.1 mm 5 mps 758 mmHg 89%
    13:00 +15°C° 0.1 mm 5 mps 758 mmHg 90%
    14:00 +15°C° 0.1 mm 5 mps 758 mmHg 91%
    15:00 +15°C° 0.1 mm 5 mps 758 mmHg 92%
    16:00 +15°C° 0 mm 4 mps 758 mmHg 93%
    17:00 +15°C° 0 mm 4 mps 758 mmHg 94%
    18:00 +16°C° 0 mm 3 mps 758 mmHg 96%
    19:00 +16°C° 0.1 mm 3 mps 759 mmHg 96%
    20:00 +14°C° 0.1 mm 3 mps 759 mmHg 97%
    21:00 +14°C° 0.1 mm 3 mps 759 mmHg 97%
    22:00 +14°C° 0.1 mm 3 mps 759 mmHg 97%
    23:00 +15°C° 0.1 mm 4 mps 759 mmHg 96%

    Day after tomorrow, 24 October, Tuesday

    Time Temperature Precipitation Wind Pressure Humidity
    00:00 +15°C° 0.1 mm 5 mps 759 mmHg 96%
    01:00 +15°C° 0.2 mm 5 mps 759 mmHg 96%
    02:00 +15°C° 0.2 mm 5 mps 758 mmHg 95%
    03:00 +16°C° 0.2 mm 5 mps 758 mmHg 95%
    04:00 +16°C° 0.3 mm 6 mps 758 mmHg 94%
    05:00 +16°C° 0.3 mm 6 mps 758 mmHg 93%
    06:00 +16°C° 0.3 mm 6 mps 758 mmHg 92%
    07:00 +16°C° 0 mm 6 mps 758 mmHg 91%
    08:00 +16°C° 0 mm 7 mps 759 mmHg 91%
    09:00 +16°C° 0 mm 7 mps 759 mmHg 90%
    10:00 +16°C° 0.1 mm 7 mps 759 mmHg 89%
    11:00 +16°C° 0.1 mm 8 mps 759 mmHg 88%
    12:00 +17°C° 0.1 mm 8 mps 759 mmHg 87%
    13:00 +17°C° 0.1 mm 8 mps 759 mmHg 87%
    14:00 +17°C° 0.1 mm 7 mps 759 mmHg 86%
    15:00 +17°C° 0.1 mm 7 mps 759 mmHg 86%
    16:00 +16°C° 0 mm 6 mps 759 mmHg 87%
    17:00 +16°C° 0 mm 6 mps 759 mmHg 89%
    18:00 +15°C° 0 mm 6 mps 759 mmHg 90%
    19:00 +15°C° 0 mm 6 mps 759 mmHg 90%
    20:00 +14°C° 0 mm 6 mps 759 mmHg 90%
    21:00 +14°C° 0 mm 6 mps 759 mmHg 90%
    22:00 +14°C° 0 mm 6 mps 759 mmHg 91%
    23:00 +13°C° 0 mm 6 mps 758 mmHg 91%

    25 October, Wednesday

    Time Temperature Precipitation Wind Pressure Humidity
    00:00 +13°C° 0 mm 6 mps 758 mmHg 91%
    01:00 +12°C° 0 mm 7 mps 758 mmHg 89%
    02:00 +14°C° 0 mm 7 mps 758 mmHg 88%
    03:00 +14°C° 0 mm 7 mps 758 mmHg 87%
    04:00 +14°C° 0 mm 6 mps 758 mmHg 87%
    05:00 +14°C° 0 mm 6 mps 758 mmHg 88%
    06:00 +14°C° 0 mm 6 mps 758 mmHg 89%
    07:00 +14°C° 0 mm 5 mps 759 mmHg 89%
    08:00 +14°C° 0 mm 5 mps 759 mmHg 89%
    09:00 +15°C° 0 mm 5 mps 760 mmHg 89%
    10:00 +15°C° 0 mm 4 mps 760 mmHg 85%
    11:00 +17°C° 0 mm 4 mps 761 mmHg 81%
    12:00 +18°C° 0 mm 4 mps 761 mmHg 76%
    13:00 +18°C° 0 mm 4 mps 761 mmHg 74%
    14:00 +18°C° 0 mm 3 mps 761 mmHg 73%
    15:00 +18°C° 0 mm 3 mps 762 mmHg 71%
    16:00 +17°C° 0 mm 3 mps 762 mmHg 76%
    17:00 +15°C° 0 mm 2 mps 762 mmHg 81%
    18:00 +14°C° 0 mm 2 mps 763 mmHg 86%
    19:00 +13°C° 0 mm 2 mps 763 mmHg 86%
    20:00 +13°C° 0 mm 1 mps 764 mmHg 87%
    21:00 +12°C° 0 mm 1 mps 764 mmHg 87%
    22:00 +12°C° 0 mm 1 mps 764 mmHg 88%
    23:00 +12°C° 0 mm 1 mps 764 mmHg 88%

    26 October, Thursday

    Time Temperature Precipitation Wind Pressure Humidity
    00:00 +11°C° 0 mm 1 mps 764 mmHg 88%
    01:00 +11°C° 0 mm 1 mps 764 mmHg 88%
    02:00 +11°C° 0 mm 1 mps 764 mmHg 89%
    03:00 +11°C° 0 mm 1 mps 764 mmHg 90%
    04:00 +12°C° 0 mm 1 mps 764 mmHg 91%
    05:00 +12°C° 0 mm 1 mps 764 mmHg 92%
    06:00 +12°C° 0 mm 1 mps 764 mmHg 93%
    07:00 +13°C° 0 mm 1 mps 764 mmHg 93%
    08:00 +14°C° 0 mm 2 mps 764 mmHg 93%
    09:00 +15°C° 0 mm 2 mps 764 mmHg 93%
    10:00 +16°C° 0 mm 2 mps 764 mmHg 90%
    11:00 +17°C° 0 mm 3 mps 764 mmHg 87%
    12:00 +17°C° 0 mm 3 mps 764 mmHg 84%
    13:00 +17°C° 0 mm 3 mps 764 mmHg 82%
    14:00 +17°C° 0 mm 3 mps 763 mmHg 80%
    15:00 +18°C° 0 mm 3 mps 763 mmHg 78%
    16:00 +16°C° 0 mm 2 mps 763 mmHg 82%
    17:00 +15°C° 0 mm 2 mps 762 mmHg 87%
    18:00 +14°C° 0 mm 2 mps 762 mmHg 91%
    19:00 +13°C° 0 mm 2 mps 762 mmHg 92%
    20:00 +13°C° 0 mm 2 mps 762 mmHg 93%
    21:00 +13°C° 0 mm 2 mps 762 mmHg 94%
    22:00 +11°C° 0 mm 3 mps 761 mmHg 94%
    23:00 +11°C° 0 mm 3 mps 761 mmHg 93%

    27 October, Friday

    Time Temperature Precipitation Wind Pressure Humidity
    00:00 +11°C° 0 mm 3 mps 761 mmHg 93%
    01:00 +11°C° 0 mm 3 mps 760 mmHg 94%
    02:00 +11°C° 0 mm 3 mps 760 mmHg 95%
    03:00 +11°C° 0 mm 3 mps 760 mmHg 95%
    04:00 +11°C° 0 mm 3 mps 760 mmHg 95%
    05:00 +11°C° 0 mm 3 mps 760 mmHg 95%
    06:00 +12°C° 0 mm 4 mps 759 mmHg 95%
    07:00 +12°C° 0 mm 4 mps 760 mmHg 92%
    08:00 +13°C° 0 mm 4 mps 760 mmHg 90%
    09:00 +13°C° 0 mm 4 mps 761 mmHg 87%
    10:00 +14°C° 0 mm 5 mps 761 mmHg 83%
    11:00 +15°C° 0 mm 5 mps 762 mmHg 78%
    12:00 +16°C° 0 mm 6 mps 762 mmHg 73%
    13:00 +15°C° 0 mm 5 mps 762 mmHg 75%
    14:00 +15°C° 0 mm 4 mps 762 mmHg 78%
    15:00 +15°C° 0 mm 4 mps 762 mmHg 80%
    16:00 +14°C° 0 mm 3 mps 762 mmHg 84%
    17:00 +14°C° 0 mm 2 mps 762 mmHg 87%
    18:00 +13°C° 0 mm 2 mps 762 mmHg 91%
    19:00 +13°C° 0 mm 2 mps 762 mmHg 91%
    20:00 +12°C° 0 mm 3 mps 762 mmHg 91%
    21:00 +12°C° 0 mm 3 mps 761 mmHg 92%
    22:00 +12°C° 0 mm 4 mps 761 mmHg 92%
    23:00 +12°C° 0 mm 4 mps 760 mmHg 93%
    Show more